Grosse Ile, MI

10:15 AM EST on December 12, 2017 (GMT -0500)
Grosse Ile Municipal

Weather History for KONZ - March, 2013

Change the Weather History Date:

Tuesday, March 12, 2013

  Actual Average (KDTW) Record (KDTW)
Temperature  
Mean Temperature 34 °F -  
Max Temperature 37 °F 43 °F 75 °F (1990)
Min Temperature 32 °F 26 °F 4 °F (1896)
Degree Days  
Heating Degree Days 30    
Moisture  
Dew Point 29 °F    
Average Humidity 76    
Maximum Humidity 81    
Minimum Humidity 65    
Precipitation  
Precipitation 0.00 in - - ()
Sea Level Pressure  
Sea Level Pressure 29.83 in    
Wind  
Wind Speed 12 mph (SW)    
Max Wind Speed 17 mph    
Max Gust Speed 26 mph    
Visibility 10 miles    
Events Snow    
Averages and records for this station are not official NWS values.
T = Trace of Precipitation, MM = Missing Value Source: NWS Daily Summary

Daily Weather History Graph

Daily Weather History Graph

Search for Another Location

Airport or City:

Trip Planner

Search our weather history database for the weather conditions in past years. The results will help you decide how hot, cold, wet, or windy it might be!

Date:

Astronomy

Mar. 12, 2013 Rise Set
Actual Time 7:49 AM EDT 7:36 PM EDT
Civil Twilight 7:21 AM EDT 8:03 PM EDT
Nautical Twilight 6:48 AM EDT 8:36 PM EDT
Astronomical Twilight 6:16 AM EDT 9:09 PM EDT
Moon 7:53 AM EDT 8:52 PM EDT
Length of Visible Light 12h 42m
Length of Day
11h 46m
New Moon, 1% of the Moon is Illuminated
Mar 12
New Moon
Mar 19
First Quarter
Mar 27
Full
Apr 3
Last Quarter
Apr 10
New

Hourly Weather History & Observations

Time (EDT) Temp. Windchill Dew Point Humidity Pressure Visibility Wind Dir Wind Speed Gust Speed Precip Events Conditions
12:14 AM 37.4 °F 29.3 °F 32.0 °F 81% 29.70 in 10.0 mi SW 12.7 mph 19.6 mph N/A   Overcast
12:34 AM 37.4 °F 30.3 °F 32.0 °F 81% 29.71 in 10.0 mi SW 10.4 mph 19.6 mph N/A   Overcast
12:54 AM 37.4 °F 28.9 °F 32.0 °F 81% 29.71 in 10.0 mi SW 13.8 mph 19.6 mph N/A   Overcast
1:14 AM 37.4 °F 28.9 °F 32.0 °F 81% 29.71 in 10.0 mi SW 13.8 mph 21.9 mph N/A   Overcast
1:34 AM 37.4 °F 29.3 °F 32.0 °F 81% 29.71 in 10.0 mi SW 12.7 mph 26.5 mph N/A   Overcast
1:54 AM 37.4 °F 28.9 °F 32.0 °F 81% 29.72 in 10.0 mi SW 13.8 mph 19.6 mph N/A   Overcast
2:14 AM 37.4 °F 30.3 °F 32.0 °F 81% 29.73 in 10.0 mi SW 10.4 mph 21.9 mph N/A   Overcast
2:33 AM 37.4 °F 29.3 °F 32.0 °F 81% 29.73 in 10.0 mi SW 12.7 mph 21.9 mph N/A   Overcast
2:54 AM 37.4 °F 30.8 °F 32.0 °F 81% 29.74 in 10.0 mi WSW 9.2 mph 21.9 mph N/A   Overcast
3:14 AM 37.4 °F 29.3 °F 32.0 °F 81% 29.74 in 10.0 mi SW 12.7 mph - N/A   Overcast
3:34 AM 37.4 °F 30.3 °F 30.2 °F 75% 29.74 in 10.0 mi WSW 10.4 mph 17.3 mph N/A   Overcast
3:54 AM 37.4 °F 29.8 °F 30.2 °F 75% 29.75 in 10.0 mi WSW 11.5 mph 17.3 mph N/A   Overcast
4:14 AM 37.4 °F 30.8 °F 30.2 °F 75% 29.75 in 10.0 mi SW 9.2 mph - N/A   Overcast
4:34 AM 35.6 °F 27.1 °F 30.2 °F 81% 29.75 in 10.0 mi WSW 12.7 mph 18.4 mph N/A   Overcast
4:54 AM 35.6 °F 26.6 °F 30.2 °F 81% 29.75 in 10.0 mi WSW 13.8 mph 19.6 mph N/A   Overcast
5:14 AM 35.6 °F 26.2 °F 30.2 °F 81% 29.75 in 10.0 mi WSW 15.0 mph - N/A   Overcast
5:34 AM 35.6 °F 27.5 °F 30.2 °F 81% 29.76 in 10.0 mi WSW 11.5 mph 16.1 mph N/A   Overcast
5:54 AM 35.6 °F 28.0 °F 30.2 °F 81% 29.77 in 10.0 mi West 10.4 mph 17.3 mph N/A   Overcast
6:14 AM 35.6 °F 27.5 °F 30.2 °F 81% 29.78 in 10.0 mi West 11.5 mph 18.4 mph N/A   Overcast
6:34 AM 35.6 °F 27.5 °F 30.2 °F 81% 29.78 in 10.0 mi WSW 11.5 mph 18.4 mph N/A   Overcast
6:54 AM 35.6 °F 28.0 °F 30.2 °F 81% 29.79 in 10.0 mi WSW 10.4 mph 16.1 mph N/A   Overcast
7:14 AM 35.6 °F 29.2 °F 30.2 °F 81% 29.79 in 10.0 mi WSW 8.1 mph - N/A   Overcast
7:34 AM 35.6 °F 28.0 °F 28.4 °F 75% 29.80 in 10.0 mi SW 10.4 mph - N/A   Overcast
7:54 AM 35.6 °F 29.2 °F 28.4 °F 75% 29.80 in 10.0 mi SW 8.1 mph 16.1 mph N/A   Overcast
8:13 AM 35.6 °F 29.2 °F 30.2 °F 81% 29.81 in 10.0 mi SW 8.1 mph - N/A   Overcast
8:34 AM 35.6 °F 27.5 °F 30.2 °F 81% 29.81 in 10.0 mi SW 11.5 mph - N/A   Overcast
8:54 AM 35.6 °F 28.6 °F 28.4 °F 75% 29.82 in 10.0 mi SW 9.2 mph - N/A   Overcast
9:14 AM 35.6 °F 28.0 °F 30.2 °F 81% 29.82 in 10.0 mi SW 10.4 mph - N/A   Overcast
9:34 AM 35.6 °F 28.0 °F 30.2 °F 81% 29.83 in 10.0 mi SW 10.4 mph - N/A   Overcast
9:54 AM 35.6 °F 28.0 °F 30.2 °F 81% 29.84 in 10.0 mi SW 10.4 mph - N/A   Overcast
10:14 AM 35.6 °F 27.1 °F 30.2 °F 81% 29.84 in 10.0 mi SW 12.7 mph 18.4 mph N/A   Overcast
10:34 AM 35.6 °F 26.2 °F 30.2 °F 81% 29.84 in 10.0 mi WSW 15.0 mph 18.4 mph N/A   Overcast
10:54 AM 35.6 °F 28.0 °F 30.2 °F 81% 29.84 in 10.0 mi WSW 10.4 mph - N/A   Overcast
11:14 AM 35.6 °F 28.6 °F 30.2 °F 81% 29.85 in 10.0 mi SW 9.2 mph 17.3 mph N/A   Overcast
11:34 AM 35.6 °F 28.0 °F 30.2 °F 81% 29.85 in 10.0 mi WSW 10.4 mph - N/A Snow Light Snow
11:54 AM 35.6 °F 28.0 °F 30.2 °F 81% 29.85 in 10.0 mi WSW 10.4 mph 20.7 mph N/A   Overcast
12:14 PM 35.6 °F 25.9 °F 30.2 °F 81% 29.85 in 10.0 mi SW 16.1 mph 20.7 mph N/A Snow Light Snow
12:34 PM 35.6 °F 27.1 °F 28.4 °F 75% 29.85 in 10.0 mi WSW 12.7 mph 19.6 mph N/A   Overcast
12:54 PM 35.6 °F 26.2 °F 28.4 °F 75% 29.85 in 10.0 mi SW 15.0 mph 18.4 mph N/A   Overcast
1:14 PM 35.6 °F 27.5 °F 30.2 °F 81% 29.86 in 5.0 mi SW 11.5 mph 20.7 mph N/A   Haze
1:34 PM 37.4 °F 28.9 °F 30.2 °F 75% 29.86 in 10.0 mi SW 13.8 mph 17.3 mph N/A   Overcast
1:53 PM 35.6 °F 27.1 °F 28.4 °F 75% 29.86 in 10.0 mi SW 12.7 mph 21.9 mph N/A   Overcast
2:14 PM 35.6 °F 26.2 °F 28.4 °F 75% 29.86 in 10.0 mi WSW 15.0 mph 21.9 mph N/A   Overcast
2:34 PM 35.6 °F 26.2 °F 28.4 °F 75% 29.86 in 10.0 mi SW 15.0 mph 24.2 mph N/A   Overcast
2:54 PM 35.6 °F 25.5 °F 28.4 °F 75% 29.85 in 10.0 mi WSW 17.3 mph 24.2 mph N/A   Overcast
3:14 PM 35.6 °F 27.5 °F 26.6 °F 70% 29.85 in 10.0 mi WSW 11.5 mph - N/A   Overcast
3:34 PM 35.6 °F 26.6 °F 26.6 °F 70% 29.85 in 10.0 mi SW 13.8 mph - N/A   Overcast
3:54 PM 35.6 °F 26.6 °F 26.6 °F 70% 29.86 in 10.0 mi SW 13.8 mph 20.7 mph N/A   Overcast
4:14 PM 35.6 °F 26.6 °F 26.6 °F 70% 29.86 in 10.0 mi WSW 13.8 mph 23.0 mph N/A   Overcast
4:34 PM 35.6 °F 25.9 °F 24.8 °F 65% 29.86 in 10.0 mi SW 16.1 mph 20.7 mph N/A   Overcast
4:54 PM 35.6 °F 27.1 °F 24.8 °F 65% 29.87 in 10.0 mi WSW 12.7 mph 18.4 mph N/A   Overcast
5:14 PM 35.6 °F 25.9 °F 24.8 °F 65% 29.87 in 10.0 mi WSW 16.1 mph 21.9 mph N/A   Overcast
5:34 PM 35.6 °F 26.2 °F 24.8 °F 65% 29.87 in 10.0 mi SW 15.0 mph 19.6 mph N/A   Overcast
5:54 PM 35.6 °F 26.2 °F 24.8 °F 65% 29.88 in 10.0 mi SW 15.0 mph 21.9 mph N/A   Overcast
6:14 PM 35.6 °F 29.2 °F 24.8 °F 65% 29.88 in 10.0 mi WSW 8.1 mph 24.2 mph N/A   Overcast
6:33 PM 35.6 °F 27.1 °F 24.8 °F 65% 29.89 in 10.0 mi WSW 12.7 mph 18.4 mph N/A   Overcast
6:54 PM 35.6 °F 27.5 °F 24.8 °F 65% 29.89 in 10.0 mi WSW 11.5 mph 19.6 mph N/A   Overcast
7:14 PM 35.6 °F 26.2 °F 24.8 °F 65% 29.90 in 10.0 mi WSW 15.0 mph 20.7 mph N/A   Overcast
7:34 PM 35.6 °F 29.2 °F 24.8 °F 65% 29.89 in 10.0 mi WSW 8.1 mph 16.1 mph N/A   Overcast
7:54 PM 33.8 °F 27.0 °F 24.8 °F 70% 29.90 in 10.0 mi SW 8.1 mph - N/A   Overcast
8:14 PM 33.8 °F 27.7 °F 24.8 °F 70% 29.91 in 10.0 mi SW 6.9 mph - N/A   Overcast
8:34 PM 33.8 °F 27.0 °F 26.6 °F 75% 29.91 in 10.0 mi SW 8.1 mph - N/A   Overcast
8:54 PM 33.8 °F 26.4 °F 26.6 °F 75% 29.91 in 10.0 mi WSW 9.2 mph - N/A   Overcast
9:14 PM 33.8 °F 24.3 °F 26.6 °F 75% 29.91 in 10.0 mi WSW 13.8 mph 18.4 mph N/A   Overcast
9:34 PM 33.8 °F 27.0 °F 26.6 °F 75% 29.91 in 10.0 mi WSW 8.1 mph - N/A   Scattered Clouds
9:54 PM 33.8 °F 25.8 °F 26.6 °F 75% 29.92 in 10.0 mi WSW 10.4 mph - N/A   Clear
10:14 PM 33.8 °F 27.0 °F 26.6 °F 75% 29.92 in 10.0 mi WSW 8.1 mph - N/A   Clear
10:34 PM 32.0 °F 26.4 °F 26.6 °F 80% 29.92 in 10.0 mi WSW 5.8 mph - N/A   Clear
10:54 PM 32.0 °F 27.5 °F 26.6 °F 80% 29.92 in 10.0 mi WSW 4.6 mph - N/A   Clear
11:14 PM 32.0 °F 28.7 °F 26.6 °F 80% 29.91 in 10.0 mi SSW 3.5 mph - N/A   Scattered Clouds
11:34 PM 32.0 °F 26.4 °F 26.6 °F 80% 29.91 in 10.0 mi SW 5.8 mph - N/A   Mostly Cloudy
11:54 PM 32.0 °F 25.6 °F 26.6 °F 80% 29.91 in 10.0 mi SSW 6.9 mph - N/A   Overcast